Hourly Data Report for August 07, 2000

SHERBROOKE A
QUEBEC

45°26'00.000" N
71°41'00.000" W
241.40 m
7028124
71610
YSC

Download Data

Hourly Data (August 2000)
Hourly Data Report for August 7, 2000
TIME
LST
Temp Definition
°C
Dew Point Definition
°C
Rel Hum Definition
%
Precip. Amount Definition
mm

Wind Dir Definition
10's deg

Wind Spd Definition
km/h
Visibility Definition
km
Stn Press Definition
kPa
Hmdx Definition


Wind Chill Definition


Weather Definition


00:00 17.2 13.8 80   14 4 15.0 98.29      
01:00 17.5 13.9 79   14 9 15.0 98.22      
02:00 17.1 14.3 84   11 7 15.0 98.16      
03:00 17.4 14.3 82   15 7 15.0 98.16      
04:00 17.2 14.5 84   15 9 15.0 98.12      
05:00 17.1 14.7 86   12 6 15.0 98.16      
06:00 16.8 14.9 89   6 4 15.0 98.16      
07:00 17.3 15.2 87     0 24.1 98.16     Cloudy
08:00 18.1 15.6 85   5 4 24.1 98.12     Cloudy
09:00 18.8 16.1 84   9 4 24.1 98.06     Cloudy
10:00 20.0 16.8 82   18 6 24.1 98.06 25   Cloudy
11:00 20.4 17.2 82   21 9 24.1 98.02 26   Cloudy
12:00 21.3 17.8 80   20 6 24.1 98.02 27   Cloudy
13:00 22.1 18.6 81   21 6 24.1 97.99 29   Cloudy
14:00 23.3 19.4 79   23 9 24.1 97.96 30   Cloudy
15:00 23.2 20.0 82   25 7 19.3 97.92 31   Rain Showers
16:00 24.4 19.6 75   21 9 19.3 97.89 32   Mostly Cloudy
17:00 24.3 20.6 80   23 6 15.0 97.92 32    
18:00 23.3 20.3 83   24 6 15.0 97.92 31    
19:00 21.6 19.9 90   19 4 11.3 97.92 29    
20:00 19.9 19.0 95     0 8.0 97.99      
21:00 20.5 19.1 92   21 9 11.3 97.99 27   Rain
22:00 19.2 18.3 95   22 7 9.7 98.02      
23:00 18.8 17.0 89   24 11 15.0 98.02      

Notes on Data Quality.

Legend

  • E = Estimated
  • M = Missing
  • NA = Not Available*
  • [empty] = Indicates an unobserved value
Date modified: